プライン彗星

C/2020 H2 ( Pruyne )

English version
Home page
Updated on February 9, 2023

---------------------------------------------------------------------

・ プロフィール

発見日 2020年4月26日
発見光度 16.2等
発見者 Theodore A. Pruyne (Catalina Sky Survey)

・ 写真集

・ 軌道要素

Epoch 2023 Feb. 25.0 TT = JDT 2460000.5                                         
T 2020 Apr. 27.82311 TT                                 Rudenko                 
q   0.8317116            (2000.0)            P               Q                  
z  +0.0052491      Peri.   26.67609     -0.13560806     -0.56693235             
 +/-0.0001720      Node   277.66312     -0.99036107     +0.05422119             
e   0.9956342      Incl.  124.93045     -0.02820276     +0.82197796             
>From 137 observations 2020 Apr. 26-2022 Jan. 31, mean residual 0".7.            

・ 星図

・ 光度変化

        m1 = 15.5 + 5 logΔ + 20.0 log r

---------------------------------------------------------------------

軌道要素はM.P.E.C. 2022-Y114に掲載されたものです。
星図はステラナビゲータ Ver.10 (アストロアーツ) で作成したものです。
光度グラフはComet for Windowsで作成したものです。

---------------------------------------------------------------------

Copyright(C) Seiichi Yoshida (comet@aerith.net). All rights reserved.